Hourly Data Report for October 24, 2013

All times are specified in Local Standard Time (LST). Add 1 hour to adjust for Daylight Saving Time where and when it is observed.

KITCHENER/WATERLOO
ONTARIO

43°27'39.000" N
80°22'43.000" W
321.60 m
6144239
71368
YKF

Download Data

Hourly Data (October 2013)
Hourly Data Report for October 24, 2013
Temp Definition
°C
Dew Point Temp Definition
°C
Rel Hum Definition
%
Wind Dir Definition
10's deg

Wind Spd Definition
km/h
Visibility Definition
km
Stn Press Definition
kPa
Hmdx Definition


Wind Chill Definition


Weather Definition


TIME
00:00 Legend Double Dagger 1.0 0.3 95 26 17 8.1 97.13     LegendNANA
01:00 Legend Double Dagger 1.1 -0.2 91 28 22 16.1 97.12     LegendNANA
02:00 Legend Double Dagger 1.0 0.1 93 27 24 16.1 97.12     LegendNANA
03:00 Legend Double Dagger 0.7 0.0 95 24 17 16.1 97.09     LegendNANA
04:00 Legend Double Dagger 0.7 0.0 95 25 13 16.1 97.13     LegendNANA
05:00 Legend Double Dagger 0.8 -0.1 94 26 21 16.1 97.14     LegendNANA
06:00 Legend Double Dagger 0.9 -0.1 93 25 18 16.1 97.17     LegendNANA
07:00 Legend Double Dagger 1.2 -0.2 90 26 22 16.1 97.20     LegendNANA
08:00 Legend Double Dagger 1.5 0.3 92 24 17 16.1 97.25     LegendNANA
09:00 Legend Double Dagger 3.4 0.9 84 26 26 16.1 97.28     LegendNANA
10:00 Legend Double Dagger 4.8 1.3 78 27 26 16.1 97.30     LegendNANA
11:00 Legend Double Dagger 5.4 0.6 71 26 33 16.1 97.30     LegendNANA
12:00 Legend Double Dagger 2.2 1.3 94 27 26 11.3 97.39     LegendNANA
13:00 Legend Double Dagger 2.6 1.9 95 26 18 LegendMM 97.38     LegendNANA
14:00 Legend Double Dagger 3.3 2.2 93 28 21 16.1 97.41     LegendNANA
15:00 Legend Double Dagger 3.5 2.1 91 28 22 16.1 97.50     LegendNANA
16:00 Legend Double Dagger 3.2 1.9 91 28 17 16.1 97.56     LegendNANA
17:00 Legend Double Dagger 2.6 1.3 91 27 18 16.1 97.62     LegendNANA
18:00 Legend Double Dagger 2.1 1.1 93 27 18 16.1 97.70     LegendNANA
19:00 Legend Double Dagger 2.0 1.0 93 27 15 16.1 97.75     LegendNANA
20:00 Legend Double Dagger 2.1 1.0 93 27 15 16.1 97.78     LegendNANA
21:00 Legend Double Dagger 2.1 1.0 92 25 13 16.1 97.82     LegendNANA
22:00 Legend Double Dagger 2.1 0.9 92 27 18 16.1 97.85     LegendNANA
23:00 Legend Double Dagger 1.7 0.8 94 27 13 16.1 97.90     LegendNANA

Notes on Data Quality.

Legend

  • E = Estimated
  • M = Missing
  • NA = Not Available
  • ‡ = Partner data that is not subject to review by the National Climate Archives
Date modified: